Weather History for Chesapeake, VA

Change the Weather History Date:

Thursday, February 7, 2013

  Actual Average (KORF) Record (KORF)
Temperature  
Mean Temperature 40 °F 42 °F  
Max Temperature 50 °F 50 °F 76 °F (1904)
Min Temperature 30 °F 33 °F 13 °F (1996)
Degree Days  
Heating Degree Days 25 24  
Month to date heating degree days 168  
Since 1 July heating degree days 2110  
Cooling Degree Days 0 0  
Month to date cooling degree days 0  
Year to date cooling degree days 0  
Moisture  
Dew Point 36 °F    
Average Humidity 75    
Maximum Humidity 100    
Minimum Humidity 58    
Precipitation  
Precipitation 0.03 in 0.11 in 1.38 in (1941)
Month to date precipitation 0.77  
Year to date precipitation 4.17  
Snow  
Snow 0.00 in 0.10 in 11.00 in (1936)
Month to date snowfall 0.6  
Since 1 July snowfall 4.2  
Snow Depth -    
Sea Level Pressure  
Sea Level Pressure 30.30 in    
Wind  
Wind Speed 6 mph (NE)    
Max Wind Speed 16 mph    
Max Gust Speed 22 mph    
Visibility 9 miles    
Events Rain    
T = Trace of Precipitation, MM = Missing Value Source: NWS Daily Summary

Daily Weather History Graph

Daily Weather History Graph

Search for Another Location

Airport:

Trip Planner

Search our weather history database for the weather conditions in past years. The results will help you decide how hot, cold, wet, or windy it might be!

Date:

Astronomy

Feb. 07, 2013 Rise Set
Actual Time 7:01 AM EST 5:37 PM EST
Civil Twilight 6:34 AM EST 6:04 PM EST
Nautical Twilight 6:04 AM EST 6:35 PM EST
Astronomical Twilight 5:33 AM EST 7:05 PM EST
Moon 4:36 AM EST (2/7) 3:01 PM EST (2/7)
Length of Visible Light 11h 29m
Length of Day
10h 36m
Waning Crescent, 9% of the Moon is Illuminated
Feb 7
Waning Crescent
Feb 10
New
Feb 17
First Quarter
Feb 25
Full
Mar 4
Last Quarter

Hourly Weather History & Observations

Time (EST) Temp. Windchill Dew Point Humidity Pressure Visibility Wind Dir Wind Speed Gust Speed Precip Events Conditions
12:15 AM 35.6 °F 32.8 °F 33.8 °F 93% 30.32 in 7.0 mi NE 3.5 mph - N/A   Clear
12:35 AM 33.8 °F - 32.0 °F 93% 30.34 in 7.0 mi Calm Calm - N/A   Clear
12:55 AM 30.2 °F - 28.4 °F 93% 30.34 in 7.0 mi Calm Calm - N/A   Clear
1:35 AM 30.2 °F - 30.2 °F 100% 30.36 in 4.0 mi Calm Calm - N/A   Clear
1:55 AM 32.0 °F - 30.2 °F 93% 30.35 in 7.0 mi Calm Calm - N/A   Clear
2:15 AM 35.6 °F - 33.8 °F 93% 30.36 in 5.0 mi Calm Calm - N/A   Clear
2:35 AM 30.2 °F - 30.2 °F 100% 30.36 in 5.0 mi Calm Calm - N/A   Scattered Clouds
2:55 AM 35.6 °F 32.8 °F 33.8 °F 93% 30.36 in 7.0 mi NNE 3.5 mph - N/A   Mostly Cloudy
3:15 AM 35.6 °F 31.7 °F 33.8 °F 93% 30.36 in 7.0 mi NE 4.6 mph - N/A   Overcast
3:35 AM 39.2 °F 35.9 °F 35.6 °F 87% 30.35 in 7.0 mi NNE 4.6 mph - N/A   Mostly Cloudy
3:55 AM 39.2 °F 35.0 °F 35.6 °F 87% 30.34 in 10.0 mi NNE 5.8 mph - N/A   Scattered Clouds
4:15 AM 37.4 °F 32.8 °F 33.8 °F 87% 30.34 in 7.0 mi NE 5.8 mph - N/A   Clear
4:35 AM 39.2 °F 35.0 °F 33.8 °F 81% 30.35 in 10.0 mi NNE 5.8 mph - N/A   Clear
4:55 AM 39.2 °F 35.9 °F 33.8 °F 81% 30.35 in 10.0 mi NNE 4.6 mph - N/A   Clear
5:15 AM 37.4 °F 34.9 °F 32.0 °F 81% 30.35 in 10.0 mi NE 3.5 mph - N/A   Clear
5:35 AM 37.4 °F 33.8 °F 32.0 °F 81% 30.36 in 10.0 mi NNE 4.6 mph - N/A   Clear
5:55 AM 39.2 °F 37.0 °F 30.2 °F 70% 30.36 in 10.0 mi North 3.5 mph - N/A   Clear
6:15 AM 37.4 °F 34.9 °F 30.2 °F 75% 30.36 in 10.0 mi NNE 3.5 mph - N/A   Clear
6:35 AM 35.6 °F 32.8 °F 30.2 °F 81% 30.36 in 10.0 mi NE 3.5 mph - N/A   Clear
6:55 AM 37.4 °F 34.9 °F 30.2 °F 75% 30.36 in 10.0 mi NNE 3.5 mph - N/A   Clear
7:15 AM 35.6 °F - 30.2 °F 81% 30.37 in 10.0 mi Calm Calm - N/A   Clear
7:35 AM 35.6 °F - 30.2 °F 81% 30.37 in 10.0 mi Calm Calm - N/A   Clear
7:55 AM 35.6 °F - 30.2 °F 81% 30.37 in 10.0 mi Calm Calm - N/A   Clear
8:15 AM 39.2 °F - 32.0 °F 75% 30.38 in 10.0 mi Calm Calm - N/A   Clear
8:35 AM 41.0 °F 38.0 °F 33.8 °F 76% 30.38 in 10.0 mi NNE 4.6 mph - N/A   Clear
8:55 AM 42.8 °F 39.3 °F 35.6 °F 76% 30.38 in 10.0 mi NE 5.8 mph - N/A   Clear
9:15 AM 44.6 °F 39.7 °F 35.6 °F 71% 30.38 in 10.0 mi NE 9.2 mph - N/A   Clear
9:35 AM 46.4 °F 40.4 °F 35.6 °F 66% 30.38 in 10.0 mi East 13.8 mph - N/A   Clear
9:55 AM 46.4 °F 41.5 °F 35.6 °F 66% 30.39 in 10.0 mi ENE 10.4 mph 18.4 mph N/A   Clear
10:15 AM 48.2 °F - 37.4 °F 66% 30.39 in 10.0 mi ENE 11.5 mph - N/A   Clear
10:35 AM 48.2 °F - 35.6 °F 62% 30.39 in 10.0 mi ENE 11.5 mph - N/A   Clear
10:55 AM 48.2 °F - 37.4 °F 66% 30.39 in 10.0 mi NE 12.7 mph 17.3 mph N/A   Clear
11:15 AM 48.2 °F - 35.6 °F 62% 30.38 in 10.0 mi ENE 11.5 mph 17.3 mph N/A   Clear
11:35 AM 50.0 °F - 35.6 °F 58% 30.37 in 10.0 mi ENE 9.2 mph 17.3 mph N/A   Clear
11:55 AM 50.0 °F - 35.6 °F 58% 30.36 in 10.0 mi East 13.8 mph 17.3 mph N/A   Clear
12:15 PM 50.0 °F - 35.6 °F 58% 30.35 in 10.0 mi East 12.7 mph 16.1 mph N/A   Clear
12:35 PM 48.2 °F - 35.6 °F 62% 30.34 in 10.0 mi ENE 11.5 mph 17.3 mph N/A   Clear
12:55 PM 48.2 °F - 37.4 °F 66% 30.33 in 10.0 mi ENE 13.8 mph - N/A   Clear
1:15 PM 48.2 °F - 37.4 °F 66% 30.32 in 10.0 mi NE 15.0 mph 20.7 mph N/A   Clear
1:35 PM 48.2 °F - 37.4 °F 66% 30.31 in 10.0 mi East 12.7 mph 21.9 mph N/A   Clear
1:55 PM 50.0 °F - 37.4 °F 62% 30.31 in 10.0 mi ENE 12.7 mph 20.7 mph N/A   Clear
2:15 PM 48.2 °F - 37.4 °F 66% 30.30 in 10.0 mi ENE 13.8 mph 21.9 mph N/A   Clear
2:35 PM 50.0 °F - 37.4 °F 62% 30.29 in 10.0 mi ENE 9.2 mph - N/A   Scattered Clouds
2:55 PM 48.2 °F - 37.4 °F 66% 30.28 in 10.0 mi East 12.7 mph - N/A   Scattered Clouds
3:15 PM 48.2 °F - 37.4 °F 66% 30.28 in 10.0 mi ENE 10.4 mph - N/A   Clear
3:35 PM 48.2 °F - 37.4 °F 66% 30.28 in 10.0 mi ENE 16.1 mph 19.6 mph N/A   Clear
3:55 PM 48.2 °F - 37.4 °F 66% 30.28 in 10.0 mi ENE 13.8 mph 18.4 mph N/A   Clear
4:15 PM 48.2 °F - 37.4 °F 66% 30.29 in 10.0 mi East 10.4 mph 17.3 mph N/A   Clear
4:35 PM 48.2 °F - 37.4 °F 66% 30.29 in 10.0 mi East 10.4 mph 16.1 mph N/A   Clear
4:55 PM 48.2 °F - 37.4 °F 66% 30.28 in 10.0 mi ENE 5.8 mph - N/A   Clear
5:15 PM 46.4 °F 41.1 °F 37.4 °F 71% 30.26 in 10.0 mi ENE 11.5 mph - N/A   Scattered Clouds
5:35 PM 46.4 °F 42.4 °F 37.4 °F 71% 30.27 in 10.0 mi NE 8.1 mph - N/A   Mostly Cloudy
5:55 PM 46.4 °F 41.9 °F 37.4 °F 71% 30.26 in 10.0 mi ENE 9.2 mph - N/A   Overcast
6:15 PM 46.4 °F 41.9 °F 39.2 °F 76% 30.26 in 10.0 mi ENE 9.2 mph - N/A   Overcast
6:35 PM 46.4 °F 41.5 °F 39.2 °F 76% 30.25 in 10.0 mi NE 10.4 mph - N/A   Overcast
6:55 PM 48.2 °F - 39.2 °F 71% 30.25 in 10.0 mi ENE 8.1 mph - N/A   Overcast
7:15 PM 48.2 °F - 39.2 °F 71% 30.24 in 10.0 mi ENE 10.4 mph 16.1 mph N/A   Overcast
7:35 PM 48.2 °F - 39.2 °F 71% 30.24 in 10.0 mi ENE 10.4 mph - N/A Rain Light Rain
7:55 PM 48.2 °F - 39.2 °F 71% 30.23 in 10.0 mi NE 11.5 mph - N/A   Light Drizzle
8:15 PM 48.2 °F - 39.2 °F 71% 30.22 in 10.0 mi ENE 10.4 mph - N/A   Light Drizzle
8:35 PM 48.2 °F - 39.2 °F 71% 30.21 in 10.0 mi NE 11.5 mph - N/A   Light Drizzle
8:55 PM 48.2 °F - 39.2 °F 71% 30.20 in 10.0 mi NE 12.7 mph 16.1 mph N/A   Overcast
9:15 PM 48.2 °F - 39.2 °F 71% 30.19 in 10.0 mi ENE 12.7 mph 21.9 mph N/A   Overcast
9:35 PM 48.2 °F - 39.2 °F 71% 30.19 in 10.0 mi NE 12.7 mph - N/A   Light Drizzle
9:55 PM 48.2 °F - 39.2 °F 71% 30.18 in 10.0 mi ENE 13.8 mph 19.6 mph N/A Rain Light Rain
10:15 PM 48.2 °F - 41.0 °F 76% 30.17 in 10.0 mi ENE 12.7 mph - N/A Rain Light Rain
10:35 PM 48.2 °F - 42.8 °F 82% 30.16 in 10.0 mi ENE 12.7 mph 20.7 mph N/A Rain Light Rain
10:55 PM 46.4 °F 41.5 °F 42.8 °F 87% 30.14 in 10.0 mi ENE 10.4 mph - N/A Rain Light Rain
11:15 PM 46.4 °F 40.7 °F 42.8 °F 87% 30.12 in 10.0 mi NE 12.7 mph - 0.02 in Rain Light Rain
11:35 PM 46.4 °F 41.9 °F 44.6 °F 93% 30.11 in 10.0 mi NE 9.2 mph - 0.03 in Rain Light Rain
11:55 PM 46.4 °F 41.5 °F 44.6 °F 93% 30.10 in 10.0 mi NE 10.4 mph - 0.02 in Rain Light Rain